User: anonymous
Location: Turtle Rock Observatory
(36.6913°N, 81.9708°W)
Time: 08:04:44
(UTC-04:00)
Language:

Cosmos 1125 Rocket - Orbit

View from above orbital plane
View from above orbital plane
View from above satellite
View from above satellite

Ground track
Ground track

The orbit data is extracted from the following two-line orbital elements,

1 11511U 79078B   14232.48035164  .00000000  00000-0  89858-5 0  8636
2 11511 074.0369 051.2295 0015738 190.5292 234.6624 14.36436599830475
Epoch (UTC): 20 August 2014 11:31:42
Eccentricity: 0.0015738
inclination: 74.0369°
perigee height: 759 km
apogee height: 781 km
right ascension of ascending node: 51.2295°
argument of perigee: 190.5292°
revolutions per day: 14.36436599
mean anomaly at epoch: 234.6624°
orbit number at epoch: 83047

The dashed part of the orbit path shows where the satellite is in the earth's shadow,  

DLR